User: anonymous   Login
Location: Melbourne
(37.8666°S, 145.1333°E)
Time: 06:23:55
(UTC+10:00)
Language:

ATLAS CENTAUR R/B - Orbit

View from above orbital plane
View from above orbital plane
View from above satellite
View from above satellite

Ground track
Ground track

The orbit data is extracted from the following two-line orbital elements,

1 28385U 04034B   16271.84797242 0.00061500  00000-0  11548-2 0    03
2 28385  57.3147 257.5719 3749789 349.2870   4.5292  8.00054261    09
Epoch (UTC): 27 September 2016 20:21:04
Eccentricity: 0.3749789
inclination: 57.3147°
perigee height: 222 km
apogee height: 8141 km
right ascension of ascending node: 257.5719°
argument of perigee: 349.2870°
revolutions per day: 8.00054261
mean anomaly at epoch: 4.5292°
orbit number at epoch: 0

The dashed part of the orbit path shows where the satellite is in the earth's shadow,  

DLR